Location: Eastchurch
(51.4000°N, 0.8667°E)
Time: 22:25:27
(UTC+00:00)

NOSS 3-1 (A) - Pass Details

Date: 19 January 2026
Orbit: 613 x 1593 km, 63.4° (Epoch: 10 January)

Event Time Altitude Azimuth Distance (km) Brightness Sun altitude
Rises 19:50:39 0° 314° (NW) 3,711 7.2 -31.7°
Reaches altitude 10° 19:53:00 10° 312° (NW) 2,886 6.6 -32.0°
Maximum altitude 19:59:57 70° 231° (SW) 1,327 4.1 -33.1°
Enters shadow 20:01:10 61° 184° (S) 1,435 4.2 -33.3°
